GW5575 Weather Reports


time (UTC)temp
F
wind
direction
speed
knots
gust
knots
rain 1hr
in
rain 24hr
in
rain mn
in
humidity
%
barometer
mb
20260508043845 27 142 22.6 23.5 0.00 0.00 0.00 87 1023.0
20260508043342 28 180 26.1 30.4 0.00 0.00 0.00 85 1022.6
20260508042838 28 270 28.7 30.4 0.00 0.00 0.00 84 1023.0
20260508042337 27 268 23.5 26.1 0.00 0.00 0.00 86 1023.2
20260508041833 28 277 26.1 26.9 0.00 0.00 0.00 85 1023.2
20260508041329 28 11 23.5 23.5 0.00 0.00 0.00 84 1023.0
20260508040826 28 280 22.6 23.5 0.00 0.00 0.00 85 1023.0
20260508040324 28 277 21.7 26.1 0.00 0.00 0.00 84 1023.2
20260508035820 28 272 19.1 20.9 0.00 0.00 0.00 85 1023.2
20260508035318 28 261 19.1 21.7 0.00 0.00 0.00 84 1023.0
20260508034815 28 269 20.9 21.7 0.00 0.00 0.00 84 1022.9
20260508034312 28 297 17.4 19.1 0.00 0.00 0.00 85 1023.2
20260508033809 28 266 25.2 26.9 0.00 0.00 0.00 83 1022.7
20260508033307 28 268 19.1 20.0 0.00 0.00 0.00 84 1022.7
20260508032804 28 278 20.9 22.6 0.00 0.00 0.00 83 1022.9
20260508032305 28 262 26.1 29.5 0.00 0.00 0.00 82 1022.7
20260508031758 28 262 27.8 29.5 0.00 0.00 0.00 82 1022.6
20260508031255 28 271 24.3 26.9 0.00 0.00 0.00 82 1022.6
20260508030751 28 268 22.6 26.1 0.00 0.00 0.00 82 1022.5
20260508030248 28 251 21.7 22.6 0.00 0.00 0.00 83 1022.9
20260508025745 29 273 20.9 22.6 0.00 0.00 0.00 83 1022.7
20260508025242 29 295 19.1 20.0 0.00 0.00 0.00 81 1022.5
20260508024738 29 270 24.3 26.9 0.00 0.00 0.00 82 1022.7
20260508024235 29 268 22.6 22.6 0.00 0.00 0.00 82 1022.5
20260508023732 29 271 22.6 26.1 0.00 0.00 0.00 82 1022.6
20260508023229 29 275 21.7 23.5 0.00 0.00 0.00 82 1022.6
20260508022725 29 255 16.5 21.7 0.00 0.00 0.00 82 1022.6
20260508022222 29 272 18.2 20.0 0.00 0.00 0.00 80 1022.7
20260508021718 29 273 21.7 23.5 0.00 0.00 0.00 81 1022.6
20260508021214 29 278 20.0 21.7 0.00 0.00 0.00 80 1022.3
20260508020712 29 273 20.9 21.7 0.00 0.00 0.00 80 1022.3
20260508020209 29 276 22.6 25.2 0.00 0.00 0.00 80 1022.5
20260508015706 29 271 19.1 20.9 0.00 0.00 0.00 79 1022.6
20260508015203 29 273 27.8 28.7 0.00 0.00 0.00 80 1022.5
20260508014659 29 277 33.0 36.5 0.00 0.00 0.00 79 1022.0
20260508014155 30 257 24.3 27.8 0.00 0.00 0.00 78 1022.2
20260508013652 29 271 20.0 20.9 0.00 0.00 0.00 79 1022.3
20260508013148 30 242 25.2 27.8 0.00 0.00 0.00 77 1022.0
20260508012646 30 247 23.5 26.9 0.00 0.00 0.00 77 1022.0
20260508012143 30 313 23.5 26.1 0.00 0.00 0.00 78 1022.0
20260508011641 30 280 33.0 34.8 0.00 0.00 0.00 78 1021.7
20260508011138 30 274 24.3 26.9 0.00 0.00 0.00 79 1022.0
20260508010635 30 271 20.9 22.6 0.00 0.00 0.00 80 1022.0
20260508010133 30 279 26.1 27.8 0.00 0.00 0.00 77 1022.0
20260508005630 30 283 16.5 17.4 0.00 0.00 0.00 79 1021.9
20260508005126 30 45 21.7 22.6 0.00 0.00 0.00 77 1021.9
20260508004622 30 183 25.2 26.9 0.00 0.00 0.00 77 1021.9
20260508004119 30 270 20.9 21.7 0.00 0.00 0.00 78 1021.9
20260508003615 30 259 21.7 23.5 0.00 0.00 0.00 77 1021.6
20260508003113 30 271 18.2 20.0 0.00 0.00 0.00 77 1021.7
20260508002609 30 275 25.2 26.9 0.00 0.00 0.00 76 1021.6
20260508002107 30 274 23.5 25.2 0.00 0.00 0.00 76 1021.7
20260508001602 30 272 26.1 27.8 0.00 0.00 0.00 77 1021.4
20260508001058 30 268 26.1 27.8 0.00 0.00 0.00 76 1022.0
20260508000554 31 288 34.8 40.8 0.00 0.00 0.00 73 1021.6
20260508000052 31 263 26.9 27.8 0.00 0.00 0.00 74 1021.7
20260507235548 31 253 20.9 21.7 0.00 0.00 0.00 76 1021.9
20260507235046 31 138 20.0 21.7 0.00 0.00 0.00 74 1021.9
20260507234542 31 273 25.2 26.1 0.00 0.00 0.00 77 1021.7
20260507234039 30 282 20.9 25.2 0.00 0.00 0.00 78 1021.7
20260507233536 30 250 20.9 22.6 0.00 0.00 0.00 80 1021.9
20260507233035 30 264 19.1 20.9 0.00 0.00 0.00 80 1022.0
20260507232530 30 272 22.6 25.2 0.00 0.00 0.00 82 1022.0
20260507232027 30 275 21.7 23.5 0.00 0.00 0.00 82 1021.7
20260507231524 30 272 23.5 26.9 0.00 0.00 0.00 81 1022.0
20260507231022 30 264 22.6 23.5 0.00 0.00 0.00 81 1021.9
20260507230518 29 286 20.9 22.6 0.00 0.00 0.00 82 1021.9
20260507230015 29 96 22.6 23.5 0.00 0.00 0.00 81 1021.9
20260507225510 29 272 23.5 26.9 0.00 0.00 0.00 84 1022.0
20260507225007 29 283 24.3 26.9 0.00 0.00 0.00 82 1022.0
20260507224502 29 272 22.6 22.6 0.00 0.00 0.00 81 1022.0
20260507223959 29 267 26.9 28.7 0.00 0.00 0.00 81 1022.0
20260507223454 29 164 21.7 22.6 0.00 0.00 0.00 82 1022.2
20260507222952 29 270 19.1 21.7 0.00 0.00 0.00 80 1022.5
20260507222449 29 275 25.2 28.7 0.00 0.00 0.00 82 1022.2
20260507221945 29 265 22.6 23.5 0.00 0.00 0.00 82 1022.5
20260507221442 29 278 22.6 23.5 0.00 0.00 0.00 81 1022.3
20260507220938 29 141 19.1 20.9 0.00 0.00 0.00 80 1022.3
20260507220436 29 267 24.3 26.9 0.00 0.00 0.00 82 1022.5
20260507215933 29 281 24.3 26.9 0.00 0.00 0.00 81 1022.3
20260507215429 29 269 24.3 26.1 0.00 0.00 0.00 82 1022.3
20260507214926 29 280 25.2 27.8 0.00 0.00 0.00 81 1022.6
20260507214424 30 280 31.3 33.9 0.00 0.00 0.00 80 1022.5
20260507213919 30 263 25.2 29.5 0.00 0.00 0.00 79 1022.7
20260507213416 29 265 31.3 33.0 0.00 0.00 0.00 79 1022.7
20260507212913 30 280 30.4 32.2 0.00 0.00 0.00 77 1022.3
20260507212409 30 276 28.7 30.4 0.00 0.00 0.00 77 1022.3
20260507211906 30 260 24.3 26.9 0.00 0.00 0.00 78 1022.5
20260507211402 29 270 26.9 29.5 0.00 0.00 0.00 78 1022.0
20260507210859 29 265 26.9 29.5 0.00 0.00 0.00 78 1022.3
20260507210356 30 275 22.6 25.2 0.00 0.00 0.00 78 1022.7
20260507205853 30 254 20.0 21.7 0.00 0.00 0.00 75 1022.5
20260507205350 29 268 27.8 32.2 0.00 0.00 0.00 78 1022.9
20260507204846 29 268 20.0 20.9 0.00 0.00 0.00 76 1022.7
20260507204343 29 264 14.8 17.4 0.00 0.00 0.00 78 1023.0
20260507203841 29 282 21.7 26.1 0.00 0.00 0.00 78 1022.9
20260507203339 29 272 26.1 28.7 0.00 0.00 0.00 78 1022.6
20260507202834 29 285 21.7 26.1 0.00 0.00 0.00 77 1023.3
20260507202331 29 278 21.7 23.5 0.00 0.00 0.00 78 1022.7
20260507201827 28 279 20.0 21.7 0.00 0.00 0.00 78 1023.0
20260507201322 29 280 26.1 27.8 0.00 0.00 0.00 81 1022.7
20260507200819 28 277 25.2 27.8 0.00 0.00 0.00 79 1022.7
20260507200315 28 267 23.5 26.1 0.00 0.00 0.00 82 1023.0
20260507195811 28 257 24.3 26.9 0.00 0.00 0.00 82 1022.6
20260507195309 28 272 24.3 26.1 0.00 0.00 0.00 81 1022.9
20260507194806 28 266 27.8 30.4 0.00 0.00 0.00 81 1022.6
20260507194302 28 278 26.1 27.8 0.00 0.00 0.00 81 1022.7
20260507193758 28 270 23.5 25.2 0.00 0.00 0.00 82 1022.9
20260507193255 27 273 27.8 32.2 0.00 0.00 0.00 82 1022.7
20260507192751 27 262 31.3 33.0 0.00 0.00 0.00 82 1022.5
20260507192248 27 270 27.8 30.4 0.00 0.00 0.00 82 1022.6
20260507191744 27 272 27.8 29.5 0.00 0.00 0.00 83 1022.9
20260507191241 27 272 29.5 32.2 0.00 0.00 0.00 84 1022.5
20260507190738 27 272 31.3 33.0 0.00 0.00 0.00 83 1022.5
20260507190237 27 265 29.5 30.4 0.00 0.00 0.00 82 1022.9
20260507185735 27 266 32.2 33.0 0.00 0.00 0.00 82 1022.7
20260507185231 27 274 32.2 34.8 0.00 0.00 0.00 83 1022.7
20260507184729 26 267 26.9 28.7 0.00 0.00 0.00 83 1022.9
20260507184227 27 274 29.5 33.0 0.00 0.00 0.00 84 1022.9
20260507183723 26 288 31.3 33.0 0.00 0.00 0.00 84 1022.7
20260507183220 26 273 26.9 27.8 0.00 0.00 0.00 85 1022.9
20260507182717 26 276 25.2 27.8 0.00 0.00 0.00 85 1023.2
20260507182212 26 273 21.7 21.7 0.00 0.00 0.00 84 1023.0
20260507181709 26 275 29.5 33.9 0.00 0.00 0.00 86 1023.0
20260507181206 26 261 22.6 25.2 0.00 0.00 0.00 86 1022.9
20260507180702 25 260 26.9 29.5 0.00 0.00 0.00 85 1022.9
20260507180159 26 276 20.0 20.9 0.00 0.00 0.00 88 1023.0
20260507175655 26 272 21.7 23.5 0.00 0.00 0.00 88 1023.2
20260507175152 26 262 25.2 26.9 0.00 0.00 0.00 87 1022.9
20260507174650 26 282 20.9 21.7 0.00 0.00 0.00 86 1023.2
20260507174148 26 274 21.7 23.5 0.00 0.00 0.00 87 1022.6
20260507173645 26 266 26.1 28.7 0.00 0.00 0.00 85 1022.9
20260507173141 26 272 20.9 23.5 0.00 0.00 0.00 87 1023.0
20260507172638 25 271 20.0 22.6 0.00 0.00 0.00 88 1023.3
20260507172135 25 272 17.4 20.9 0.00 0.00 0.00 87 1023.3
20260507171635 25 223 17.4 20.0 0.00 0.00 0.00 89 1023.3
20260507171133 24 273 20.9 22.6 0.00 0.00 0.00 89 1023.5
20260507170630 24 273 16.5 18.2 0.00 0.00 0.00 89 1023.5
20260507170127 24 270 15.6 17.4 0.00 0.00 0.00 89 1023.8
20260507165622 24 255 16.5 17.4 0.00 0.00 0.00 88 1023.5
20260507165119 24 258 12.2 13.0 0.00 0.00 0.00 89 1023.5
20260507164615 24 274 9.6 9.6 0.00 0.00 0.00 88 1023.5
20260507164112 23 266 13.0 14.8 0.00 0.00 0.00 89 1023.6
20260507163609 23 234 11.3 12.2 0.00 0.00 0.00 88 1023.9
20260507163107 23 240 13.0 14.8 0.00 0.00 0.00 88 1023.6
20260507162602 24 256 10.4 12.2 0.00 0.00 0.00 87 1023.5
20260507162059 23 270 11.3 13.9 0.00 0.00 0.00 87 1023.5
20260507161555 23 282 14.8 17.4 0.00 0.00 0.00 88 1023.8
20260507161052 23 271 13.0 14.8 0.00 0.00 0.00 88 1023.8
20260507160548 22 247 12.2 13.0 0.00 0.00 0.00 89 1023.6
20260507160044 22 256 10.4 11.3 0.00 0.00 0.00 89 1023.5
20260507155540 22 222 13.9 13.9 0.00 0.00 0.00 89 1023.6
20260507155037 22 242 17.4 19.1 0.00 0.00 0.00 90 1023.6
20260507154534 21 249 14.8 15.6 0.00 0.00 0.00 90 1023.9
20260507154031 21 225 13.0 14.8 0.00 0.00 0.00 91 1023.8
20260507153528 21 250 13.9 15.6 0.00 0.00 0.00 91 1023.6
20260507153024 20 256 16.5 18.2 0.00 0.00 0.00 91 1023.9
20260507152520 20 256 15.6 18.2 0.00 0.00 0.00 91 1024.1
20260507152017 20 258 13.0 14.8 0.00 0.00 0.00 91 1024.1
20260507151513 20 252 13.9 14.8 0.00 0.00 0.00 91 1024.2
20260507151010 19 253 11.3 12.2 0.00 0.00 0.00 91 1023.8
20260507150507 19 268 11.3 13.0 0.00 0.00 0.00 91 1024.2
20260507150004 19 287 11.3 12.2 0.00 0.00 0.00 91 1024.3
20260507145458 19 279 10.4 11.3 0.00 0.00 0.00 91 1023.9
20260507144956 19 283 9.6 11.3 0.00 0.00 0.00 90 1024.2
20260507144452 19 272 7.8 8.7 0.00 0.00 0.00 90 1023.9
20260507143949 20 282 7.0 7.8 0.00 0.00 0.00 88 1023.9
20260507143447 20 282 5.2 6.1 0.00 0.00 0.00 89 1024.2
20260507142944 19 282 4.3 5.2 0.00 0.00 0.00 90 1023.9
20260507142439 19 335 4.3 5.2 0.00 0.00 0.00 90 1024.1
20260507141937 19 280 6.1 6.1 0.00 0.00 0.00 89 1024.1
20260507141432 18 283 4.3 5.2 0.00 0.00 0.00 89 1024.1
20260507140930 18 279 4.3 5.2 0.00 0.00 0.00 89 1024.2
20260507140426 18 279 4.3 5.2 0.00 0.00 0.00 90 1023.9
20260507135924 18 295 5.2 6.1 0.00 0.00 0.00 89 1023.9
20260507135420 18 274 5.2 6.1 0.00 0.00 0.00 89 1023.9
20260507134918 17 280 5.2 6.1 0.00 0.00 0.00 89 1024.1
20260507134414 17 328 5.2 5.2 0.00 0.00 0.00 89 1023.9
20260507133910 17 275 4.3 5.2 0.00 0.00 0.00 90 1023.9
20260507133406 17 303 5.2 5.2 0.00 0.00 0.00 89 1023.6
20260507132905 18 303 7.8 8.7 0.00 0.00 0.00 91 1023.9
20260507132401 17 331 7.8 8.7 0.00 0.00 0.00 90 1023.8
20260507131858 17 291 6.1 7.0 0.00 0.00 0.00 90 1023.6
20260507131355 17 260 6.1 6.1 0.00 0.00 0.00 91 1023.5
20260507130852 18 347 9.6 9.6 0.00 0.00 0.00 92 1023.3
20260507130348 17 1 7.0 7.0 0.00 0.00 0.00 91 1023.3
20260507125848 17 338 4.3 5.2 0.00 0.00 0.00 90 1023.6
20260507125344 16 309 5.2 6.1 0.00 0.00 0.00 90 1023.5
20260507124842 17 309 6.1 7.0 0.00 0.00 0.00 91 1023.2
20260507124338 17 311 6.1 7.0 0.00 0.00 0.00 90 1023.3
20260507123837 17 284 5.2 6.1 0.00 0.00 0.00 91 1023.3
20260507123334 17 314 6.1 6.1 0.00 0.00 0.00 91 1023.2
20260507122830 16 268 3.5 4.3 0.00 0.00 0.00 90 1023.2
20260507122325 16 267 6.1 6.1 0.00 0.00 0.00 89 1023.2
20260507121823 16 267 7.0 7.0 0.00 0.00 0.00 91 1023.0
20260507121317 17 283 7.8 7.8 0.00 0.00 0.00 92 1023.3
20260507120814 16 265 6.1 7.0 0.00 0.00 0.00 92 1023.2
20260507120310 17 266 8.7 8.7 0.00 0.00 0.00 92 1022.9
20260507115807 17 329 9.6 11.3 0.00 0.00 0.00 92 1023.0
20260507115306 16 341 8.7 8.7 0.00 0.00 0.00 92 1023.0
20260507114758 17 324 7.8 8.7 0.00 0.00 0.00 93 1023.2
20260507114256 16 326 11.3 13.0 0.00 0.00 0.00 93 1023.2
20260507113753 17 333 12.2 13.0 0.00 0.00 0.00 94 1022.9
20260507113250 17 331 11.3 13.0 0.00 0.00 0.00 94 1022.5
20260507112748 16 331 9.6 9.6 0.00 0.00 0.00 94 1022.9
20260507112244 16 357 10.4 12.2 0.00 0.00 0.00 94 1022.6
20260507111742 17 351 8.7 11.3 0.00 0.00 0.00 94 1022.7
20260507111238 16 335 10.4 12.2 0.00 0.00 0.00 94 1022.5
20260507110734 17 328 10.4 11.3 0.00 0.00 0.00 94 1022.6
20260507110231 16 330 8.7 9.6 0.00 0.00 0.00 94 1022.6
20260507105728 16 341 9.6 9.6 0.00 0.00 0.00 94 1022.5
20260507105224 17 332 11.3 12.2 0.00 0.00 0.00 94 1022.6
20260507104722 17 331 11.3 13.0 0.00 0.00 0.00 94 1022.6
20260507104218 17 329 13.0 13.9 0.00 0.00 0.00 94 1022.2
20260507103714 17 334 12.2 13.0 0.00 0.00 0.00 94 1022.5
20260507103210 17 338 15.6 15.6 0.00 0.00 0.00 94 1022.5
20260507102707 17 332 12.2 12.2 0.00 0.00 0.00 94 1022.7
20260507102204 17 326 13.0 13.9 0.00 0.00 0.00 94 1022.5
20260507101700 17 330 15.6 17.4 0.00 0.00 0.00 94 1022.7
20260507101155 17 50 14.8 15.6 0.00 0.00 0.00 94 1022.6
20260507100653 17 68 14.8 14.8 0.00 0.00 0.00 94 1022.7
20260507100151 17 337 11.3 13.0 0.00 0.00 0.00 94 1022.7
20260507095649 17 339 12.2 13.0 0.00 0.00 0.00 94 1022.9
20260507095145 17 334 14.8 15.6 0.00 0.00 0.00 94 1022.9
20260507094642 17 333 14.8 15.6 0.00 0.00 0.00 94 1022.7
20260507094138 17 339 16.5 17.4 0.00 0.00 0.00 94 1022.6
20260507093636 17 336 17.4 19.1 0.00 0.00 0.00 94 1022.5
20260507093134 17 339 16.5 18.2 0.00 0.00 0.00 94 1022.6
20260507092631 17 343 13.0 14.8 0.00 0.00 0.00 94 1022.9
20260507092127 17 333 13.9 15.6 0.00 0.00 0.00 94 1022.6
20260507091624 17 352 18.2 19.1 0.00 0.00 0.00 94 1022.7
20260507091120 17 338 16.5 17.4 0.00 0.00 0.00 94 1022.7
20260507090616 17 331 17.4 18.2 0.00 0.00 0.00 94 1022.9
20260507090113 16 337 19.1 20.0 0.00 0.00 0.00 94 1022.7
20260507085610 17 333 14.8 15.6 0.00 0.00 0.00 94 1022.9
20260507085107 17 325 13.0 14.8 0.00 0.00 0.00 94 1022.9
20260507084603 16 336 12.2 13.0 0.00 0.00 0.00 93 1022.7
20260507084100 16 335 15.6 17.4 0.00 0.00 0.00 94 1022.6
20260507083556 16 328 13.0 13.9 0.00 0.00 0.00 93 1022.9
20260507083054 15 335 14.8 15.6 0.00 0.00 0.00 93 1022.7
20260507082549 16 328 14.8 15.6 0.00 0.00 0.00 93 1023.0
20260507082046 15 329 13.9 14.8 0.00 0.00 0.00 93 1022.7
20260507081542 15 327 16.5 18.2 0.00 0.00 0.00 93 1022.9
20260507081040 15 328 16.5 17.4 0.00 0.00 0.00 92 1022.6
20260507080535 15 327 18.2 20.0 0.00 0.00 0.00 92 1022.9
20260507080032 14 131 14.8 15.6 0.00 0.00 0.00 92 1022.7
20260507075527 14 312 16.5 17.4 0.00 0.00 0.00 92 1022.7
20260507075024 14 300 13.0 13.9 0.00 0.00 0.00 92 1022.7
20260507074521 14 348 15.6 15.6 0.00 0.00 0.00 92 1022.9
20260507074020 13 339 18.2 20.0 0.00 0.00 0.00 93 1022.6
20260507073515 13 306 16.5 18.2 0.00 0.00 0.00 93 1022.6
20260507073012 13 319 14.8 15.6 0.00 0.00 0.00 93 1022.6
20260507072509 13 338 15.6 17.4 0.00 0.00 0.00 93 1022.6
20260507072006 12 329 18.2 20.0 0.00 0.00 0.00 93 1022.6
20260507071504 12 310 13.9 13.9 0.00 0.00 0.00 93 1022.7
20260507071000 12 303 16.5 17.4 0.00 0.00 0.00 93 1022.5
20260507070457 12 122 15.6 17.4 0.00 0.00 0.00 93 1022.6
20260507065954 12 270 14.8 15.6 0.00 0.00 0.00 93 1022.7
20260507065451 12 306 13.0 13.9 0.00 0.00 0.00 93 1022.6
20260507064948 12 306 13.9 13.9 0.00 0.00 0.00 93 1022.7
20260507064446 12 308 15.6 17.4 0.00 0.00 0.00 93 1022.7
20260507063943 12 145 17.4 19.1 0.00 0.00 0.00 93 1022.9
20260507063440 12 197 16.5 17.4 0.00 0.00 0.00 93 1022.9
20260507062937 12 298 17.4 18.2 0.00 0.00 0.00 93 1023.0
20260507062434 12 306 15.6 15.6 0.00 0.00 0.00 93 1023.3
20260507061932 12 297 17.4 19.1 0.00 0.00 0.00 93 1022.7
20260507061430 12 291 18.2 19.1 0.00 0.00 0.00 93 1022.9
20260507060928 12 326 20.9 20.9 0.00 0.00 0.00 93 1022.6
20260507060424 12 316 20.9 20.9 0.00 0.00 0.00 93 1022.7
20260507055921 12 340 19.1 20.0 0.00 0.00 0.00 93 1022.7
20260507055417 12 292 19.1 20.0 0.00 0.00 0.00 93 1022.6
20260507054914 12 297 19.1 20.9 0.00 0.00 0.00 93 1022.6
20260507054409 12 295 18.2 19.1 0.00 0.00 0.00 93 1022.3
20260507053907 11 319 15.6 17.4 0.00 0.00 0.00 93 1022.5
20260507053405 12 295 15.6 15.6 0.00 0.00 0.00 93 1022.6
20260507052903 12 322 19.1 20.9 0.00 0.00 0.00 93 1022.7
20260507052400 12 52 15.6 17.4 0.00 0.00 0.00 93 1022.9
20260507051857 12 244 15.6 15.6 0.00 0.00 0.00 93 1022.5
20260507051355 12 42 14.8 15.6 0.00 0.00 0.00 93 1022.7
20260507050851 12 329 13.0 13.9 0.00 0.00 0.00 93 1022.7
20260507050348 12 27 13.9 15.6 0.00 0.00 0.00 93 1022.6
20260507045845 12 326 15.6 17.4 0.00 0.00 0.00 94 1022.7
20260507045341 12 80 15.6 15.6 0.00 0.00 0.00 93 1022.7
20260507044839 12 306 14.8 15.6 0.00 0.00 0.00 93 1022.5
20260507044335 12 313 18.2 19.1 0.00 0.00 0.00 93 1022.5